Jordan, MT

7:09 PM MDT on April 20, 2018 (GMT -0600)
Jordan

Weather History for KJDN - June, 2014

Change the Weather History Date:

Tuesday, June 3, 2014

  Actual Average Record
Temperature  
Mean Temperature 66 °F 58 °F  
Max Temperature 78 °F 72 °F 100 °F (1988)
Min Temperature 53 °F 45 °F 29 °F (1910)
Degree Days  
Heating Degree Days 0 7  
Month to date heating degree days 11 22  
Since 1 June heating degree days 11 22  
Since 1 July heating degree days 8438 8143  
Cooling Degree Days 1 1  
Month to date cooling degree days 1 2  
Year to date cooling degree days 26 8  
Since 1 June cooling degree days 1 2  
Growing Degree Days 16 (Base 50)    
Moisture  
Dew Point 52 °F    
Average Humidity 65    
Maximum Humidity 93    
Minimum Humidity 37    
Precipitation  
Precipitation 0.12 in 0.09 in 1.83 in (1943)
Month to date precipitation 0.12 0.26  
Year to date precipitation 4.08 4.63  
Snow  
Snow 0.00 in - - ()
Month to date snowfall 0.0  
Since 1 June snowfall 0.0  
Since 1 July snowfall 0.0  
Snow Depth 0.00 in    
Sea Level Pressure  
Sea Level Pressure 29.79 in    
Wind  
Wind Speed 11 mph (ESE)    
Max Wind Speed 26 mph    
Max Gust Speed 32 mph    
T = Trace of Precipitation, MM = Missing Value Source: NWS Daily Summary

Daily Weather History Graph

Daily Weather History Graph

Search for Another Location

Airport or City:

Astronomy

Jun. 03, 2014 Rise Set
Actual Time 5:14 AM MDT 8:58 PM MDT
Civil Twilight 4:34 AM MDT 9:37 PM MDT
Nautical Twilight 3:41 AM MDT 10:30 PM MDT
Astronomical Twilight 2:26 AM MDT 11:46 PM MDT
Moon 10:55 AM MDT (6/3) 12:13 AM MDT (6/3)
Length of Visible Light 17h 02m
Length of Day
15h 44m
Waxing Crescent, 30% of the Moon is Illuminated
Jun 3
Waxing Crescent
Jun 5
First Quarter
Jun 12
Full
Jun 19
Last Quarter
Jun 27
New

Hourly Weather History & Observations

Time (MDT) Temp. Dew Point Humidity Pressure Visibility Wind Dir Wind Speed Gust Speed Precip Events Conditions
12:48 AM 59.0 °F 52.0 °F 78% 29.88 in - East 8.1 mph - N/A   Unknown
1:48 AM 55.9 °F 53.1 °F 90% 29.89 in - NE 13.8 mph - N/A   Unknown
2:48 AM 55.9 °F 51.1 °F 84% 29.86 in - ESE 12.7 mph - N/A   Unknown
3:48 AM 55.0 °F 50.0 °F 83% 29.86 in - East 4.6 mph - N/A   Unknown
4:48 AM 53.1 °F 50.0 °F 89% 29.83 in - ESE 6.9 mph - N/A   Unknown
5:48 AM 54.0 °F 48.9 °F 83% 29.82 in - East 6.9 mph - N/A   Unknown
6:48 AM 57.0 °F 50.0 °F 77% 29.80 in - ENE 4.6 mph - N/A   Unknown
7:48 AM 61.0 °F 52.0 °F 72% 29.81 in - NNE 4.6 mph - N/A   Unknown
8:48 AM 64.9 °F 53.1 °F 65% 29.79 in - East 6.9 mph - N/A   Unknown
9:48 AM 69.1 °F 54.0 °F 58% 29.77 in - East 12.7 mph - N/A   Unknown
10:48 AM 73.9 °F 50.0 °F 43% 29.76 in - ESE 17.3 mph - N/A   Unknown
11:48 AM 75.0 °F 48.0 °F 38% 29.76 in - SE 16.1 mph - N/A   Unknown
12:48 PM 73.0 °F 48.0 °F 41% 29.76 in - SSE 11.5 mph - N/A   Unknown
1:48 PM 73.9 °F 48.9 °F 41% 29.76 in - SE 10.4 mph - N/A   Unknown
2:48 PM 78.1 °F 50.0 °F 37% 29.72 in - East 15.0 mph 19.6 mph N/A   Unknown
3:48 PM 77.0 °F 52.0 °F 42% 29.71 in - ESE 16.1 mph - N/A   Unknown
4:48 PM 75.0 °F 55.9 °F 51% 29.71 in - ESE 17.3 mph 24.2 mph N/A   Unknown
5:48 PM 72.0 °F 57.0 °F 59% 29.73 in - SE 20.7 mph 27.6 mph N/A   Unknown
6:48 PM 69.1 °F 54.0 °F 58% 29.74 in - SE 17.3 mph 27.6 mph N/A   Unknown
7:41 PM 59.0 °F 54.0 °F 83% 29.80 in - WSW 17.3 mph 27.6 mph 0.02 in   Unknown
7:48 PM 60.1 °F 54.0 °F 80% 29.78 in - SW 20.7 mph 28.8 mph 0.02 in   Unknown
7:52 PM 60.1 °F 53.1 °F 78% 29.78 in - South 23.0 mph 31.1 mph N/A   Unknown
8:48 PM 60.1 °F 53.1 °F 78% 29.78 in - SSE 5.8 mph - 0.08 in   Unknown
9:48 PM 59.0 °F 52.0 °F 78% 29.77 in - SSW 8.1 mph - 0.02 in   Unknown
10:48 PM 59.0 °F 51.1 °F 75% 29.79 in - West 8.1 mph - N/A   Unknown
11:48 PM 55.9 °F 51.1 °F 84% 29.78 in - SW 11.5 mph - N/A   Unknown